�������l�o���
Date,Time,MP-1(��Sv/h),MP-2(��Sv/h),MP-3(��Sv/h),MP-4(��Sv/h),MP-5(��Sv/h),MP-6(��Sv/h),MP-7(��Sv/h),MP-8(��Sv/h),����,����(m/s),���J
2021/10/14,00:00,0.564,0.836,0.534,1.024,0.702,0.352,0.604,0.571,�k�k��,7.0,��
2021/10/14,00:10,0.562,0.836,0.536,1.025,0.704,0.351,0.603,0.572,�k�k��,7.3,��
2021/10/14,00:20,0.563,0.838,0.535,1.024,0.704,0.351,0.602,0.572,�k�k��,7.3,��
2021/10/14,00:30,0.563,0.839,0.535,1.023,0.704,0.352,0.604,0.574,�k��,6.7,��
2021/10/14,00:40,0.564,0.837,0.536,1.023,0.704,0.350,0.604,0.572,�k�k��,6.1,��
2021/10/14,00:50,0.563,0.836,0.534,1.026,0.703,0.351,0.603,0.572,�k��,6.3,��
2021/10/14,01:00,0.563,0.837,0.536,1.026,0.701,0.351,0.605,0.572,�k�k��,6.3,��
2021/10/14,01:10,0.564,0.837,0.535,1.024,0.703,0.350,0.604,0.573,�k�k��,6.8,��
2021/10/14,01:20,0.563,0.837,0.536,1.022,0.706,0.350,0.605,0.572,�k�k��,7.6,��
2021/10/14,01:30,0.564,0.838,0.535,1.025,0.705,0.351,0.603,0.573,�k�k��,7.1,��
2021/10/14,01:40,0.563,0.839,0.537,1.027,0.705,0.351,0.603,0.573,�k��,8.0,��
2021/10/14,01:50,0.564,0.838,0.535,1.024,0.706,0.352,0.606,0.574,�k�k��,7.6,��
2021/10/14,02:00,0.564,0.838,0.536,1.026,0.705,0.351,0.604,0.575,�k�k��,8.2,��
2021/10/14,02:10,0.565,0.838,0.538,1.026,0.705,0.351,0.605,0.573,�k�k��,8.4,��
2021/10/14,02:20,0.566,0.838,0.537,1.027,0.705,0.352,0.604,0.573,�k�k��,7.8,��
2021/10/14,02:30,0.565,0.839,0.537,1.027,0.708,0.352,0.604,0.574,�k�k��,7.3,��
2021/10/14,02:40,0.566,0.841,0.536,1.026,0.705,0.352,0.605,0.573,�k�k��,6.5,��
2021/10/14,02:50,0.563,0.840,0.536,1.026,0.707,0.351,0.605,0.573,�k�k��,6.6,��
2021/10/14,03:00,0.565,0.841,0.536,1.025,0.708,0.351,0.605,0.573,�k�k��,6.4,��
2021/10/14,03:10,0.565,0.839,0.537,1.024,0.707,0.351,0.605,0.573,�k�k��,7.4,��
2021/10/14,03:20,0.564,0.838,0.537,1.025,0.708,0.351,0.605,0.574,�k�k��,6.7,��
2021/10/14,03:30,0.565,0.838,0.536,1.025,0.706,0.351,0.607,0.574,�k�k��,7.1,��
2021/10/14,03:40,0.564,0.838,0.537,1.026,0.708,0.352,0.606,0.573,�k�k��,8.6,��
2021/10/14,03:50,0.565,0.840,0.537,1.029,0.708,0.352,0.605,0.574,�k�k��,7.7,��
2021/10/14,04:00,0.565,0.841,0.538,1.026,0.708,0.352,0.607,0.573,�k��,7.2,��
2021/10/14,04:10,0.567,0.840,0.537,1.027,0.706,0.352,0.606,0.573,�k�k��,6.4,��
2021/10/14,04:20,0.564,0.841,0.538,1.028,0.706,0.351,0.606,0.573,�k�k��,7.0,��
2021/10/14,04:30,0.566,0.840,0.537,1.029,0.710,0.352,0.607,0.573,�k�k��,6.7,��
2021/10/14,04:40,0.564,0.839,0.539,1.027,0.709,0.352,0.607,0.575,�k�k��,6.6,��
2021/10/14,04:50,0.564,0.840,0.538,1.027,0.708,0.352,0.607,0.574,�k�k��,7.3,��
2021/10/14,05:00,0.564,0.842,0.537,1.028,0.710,0.351,0.607,0.572,�k��,6.3,��
2021/10/14,05:10,0.565,0.840,0.537,1.028,0.709,0.352,0.607,0.574,�k��,6.5,��
2021/10/14,05:20,0.565,0.841,0.538,1.031,0.709,0.351,0.607,0.572,�k��,5.5,��
2021/10/14,05:30,0.565,0.842,0.537,1.030,0.709,0.351,0.606,0.574,�k��,4.5,��
2021/10/14,05:40,0.564,0.840,0.538,1.029,0.708,0.351,0.608,0.573,�k��,4.0,��
2021/10/14,05:50,0.566,0.842,0.537,1.030,0.708,0.352,0.607,0.573,�k�k��,5.3,��
2021/10/14,06:00,0.565,0.840,0.537,1.028,0.709,0.351,0.606,0.573,�k�k��,5.4,��
2021/10/14,06:10,0.564,0.843,0.538,1.030,0.710,0.352,0.608,0.573,�k�k��,5.7,��
2021/10/14,06:20,0.564,0.841,0.537,1.029,0.710,0.352,0.608,0.574,�k��,5.3,��
2021/10/14,06:30,0.565,0.841,0.539,1.030,0.709,0.352,0.607,0.573,�k��,5.8,��
2021/10/14,06:40,0.564,0.842,0.538,1.029,0.710,0.353,0.609,0.574,�k��,5.1,��
2021/10/14,06:50,0.564,0.842,0.539,1.030,0.712,0.352,0.608,0.575,�k��,5.2,��
2021/10/14,07:00,0.565,0.843,0.539,1.031,0.711,0.352,0.608,0.574,�k��,5.6,��
2021/10/14,07:10,0.567,0.842,0.539,1.028,0.709,0.352,0.609,0.572,�k��,6.0,��
2021/10/14,07:20,0.565,0.842,0.538,1.029,0.709,0.351,0.608,0.573,�k��,5.4,��
2021/10/14,07:30,0.566,0.843,0.540,1.028,0.711,0.352,0.608,0.574,�k��,5.6,��
2021/10/14,07:40,0.567,0.843,0.541,1.031,0.710,0.352,0.610,0.574,�k��,3.6,��
2021/10/14,07:50,0.567,0.844,0.538,1.031,0.711,0.353,0.609,0.574,�k�k��,4.7,��
2021/10/14,08:00,0.566,0.843,0.539,1.032,0.711,0.352,0.610,0.573,�k,4.2,��
2021/10/14,08:10,0.566,0.843,0.540,1.031,0.712,0.352,0.608,0.573,�k,4.2,��
2021/10/14,08:20,0.567,0.841,0.540,1.032,0.711,0.352,0.609,0.575,�k,2.9,��
2021/10/14,08:30,0.564,0.843,0.542,1.033,0.712,0.354,0.608,0.574,�k,3.5,��
2021/10/14,08:40,0.567,0.841,0.540,1.033,0.714,0.353,0.608,0.574,�k,3.7,��
2021/10/14,08:50,0.565,0.842,0.539,1.033,0.713,0.352,0.608,0.574,�k,3.7,��
2021/10/14,09:00,0.565,0.843,0.539,1.033,0.713,0.354,0.608,0.578,�k�k��,3.8,��
2021/10/14,09:10,0.566,0.842,0.538,1.032,0.711,0.353,0.608,0.574,�k��,4.2,��
2021/10/14,09:20,0.566,0.844,0.540,1.032,0.712,0.353,0.608,0.574,�k�k��,4.4,��
2021/10/14,09:30,0.566,0.844,0.540,1.033,0.714,0.351,0.608,0.575,�k�k��,3.9,��
2021/10/14,09:40,0.569,0.843,0.539,1.032,0.714,0.351,0.608,0.574,�k�k��,3.5,��
2021/10/14,09:50,0.567,0.845,0.538,1.035,0.715,0.349,0.608,0.572,�k�k��,3.4,��
2021/10/14,10:00,0.570,0.844,0.539,1.033,0.715,0.350,0.609,0.572,�k�k��,3.3,��
2021/10/14,10:10,0.568,0.844,0.540,1.033,0.716,0.352,0.608,0.573,�k�k��,3.6,��
2021/10/14,10:20,0.569,0.845,0.542,1.033,0.715,0.353,0.609,0.573,�k�k��,3.1,��
2021/10/14,10:30,0.568,0.846,0.540,1.034,0.716,0.351,0.610,0.573,�k�k��,3.5,��
2021/10/14,10:40,0.569,0.846,0.541,1.035,0.716,0.350,0.608,0.571,�k��,4.5,��
2021/10/14,10:50,0.569,0.845,0.542,1.034,0.716,0.351,0.611,0.572,�k�k��,4.2,��
2021/10/14,11:00,0.569,0.846,-,1.034,0.718,0.350,0.611,0.572,�k��,4.2,��
2021/10/14,11:10,0.570,0.848,-,1.034,0.719,0.351,0.611,0.571,�k�k��,4.7,��
2021/10/14,11:20,0.571,0.849,-,1.035,0.719,0.353,0.609,0.572,�k�k��,4.8,��
2021/10/14,11:30,0.571,0.847,-,1.035,0.721,0.351,0.610,0.573,�k�k��,4.9,��
2021/10/14,11:40,0.572,0.849,-,1.034,0.720,0.352,0.611,0.572,�k�k��,4.8,��
2021/10/14,11:50,0.572,0.851,-,1.034,0.719,0.352,0.612,0.574,�k�k��,4.4,��
2021/10/14,12:00,0.570,0.850,-,1.036,0.720,0.353,0.610,0.573,�k�k��,4.3,��
2021/10/14,12:10,0.571,0.852,-,1.037,0.719,0.352,0.610,0.573,�k��,4.4,��
2021/10/14,12:20,0.571,0.851,-,1.037,0.721,0.353,0.611,0.574,�k�k��,4.7,��
2021/10/14,12:30,0.572,0.852,-,1.037,0.722,0.352,0.611,0.574,�k��,4.9,��
2021/10/14,12:40,0.573,0.854,-,1.039,0.721,0.353,0.611,0.573,�k�k��,4.4,��
2021/10/14,12:50,0.574,0.851,-,1.040,0.722,0.353,0.612,0.573,�k�k��,4.3,��
2021/10/14,13:00,0.573,0.854,-,1.035,0.722,0.353,0.612,0.573,�k�k��,3.4,��
2021/10/14,13:10,0.574,0.852,-,1.037,0.722,0.353,0.612,0.573,�k�k��,2.6,��
2021/10/14,13:20,0.574,0.852,-,1.037,0.724,0.352,0.613,0.573,�k��,2.9,��
2021/10/14,13:30,0.572,0.852,-,1.036,0.724,0.352,0.611,0.574,�k�k��,3.4,��
2021/10/14,13:40,0.573,0.855,-,1.038,0.724,0.353,0.611,0.576,�k�k��,3.2,��
2021/10/14,13:50,0.574,0.853,-,1.039,0.724,0.353,0.613,0.573,�k�k��,3.2,��
2021/10/14,14:00,0.572,0.854,-,1.037,0.725,0.354,0.612,0.575,�k�k��,3.3,��
2021/10/14,14:10,0.574,0.852,0.546,1.037,0.726,0.354,0.614,0.573,�k�k��,3.1,��
2021/10/14,14:20,0.574,0.854,0.545,1.038,0.724,0.353,0.612,0.574,�k�k��,4.0,��
2021/10/14,14:30,0.573,0.853,0.545,1.037,0.724,0.353,0.612,0.574,�k�k��,3.8,��
2021/10/14,14:40,0.574,0.854,0.545,1.038,0.723,0.354,0.614,0.575,�k�k��,3.6,��
2021/10/14,14:50,0.573,0.851,0.546,1.038,0.724,0.355,0.613,0.573,�k�k��,4.3,��
2021/10/14,15:00,0.574,0.853,0.545,1.039,0.724,0.353,0.613,0.574,�k�k��,4.2,��
2021/10/14,15:10,0.573,0.856,0.544,1.040,0.723,0.353,0.613,0.574,�k�k��,3.9,��
2021/10/14,15:20,0.575,0.856,0.544,1.037,0.725,0.354,0.613,0.574,�k�k��,2.9,��
2021/10/14,15:30,0.575,0.857,0.545,1.039,0.726,0.353,0.612,0.573,�k�k��,3.5,��
2021/10/14,15:40,0.573,0.854,0.546,1.039,0.724,0.353,0.613,0.575,�k�k��,2.9,��
2021/10/14,15:50,0.575,0.853,0.545,1.040,0.726,0.353,0.612,0.575,�k,2.6,��
2021/10/14,16:00,0.572,0.855,0.546,1.042,0.726,0.353,0.613,0.574,�k,2.8,��
2021/10/14,16:10,0.574,0.856,0.545,1.039,0.727,0.355,0.612,0.574,�k�k��,1.9,��
2021/10/14,16:20,0.574,0.855,0.546,1.037,0.724,0.352,0.612,0.574,�k,1.4,��
2021/10/14,16:30,0.572,0.853,0.546,1.040,0.724,0.354,0.613,0.574,�k,1.2,��
2021/10/14,16:40,0.573,0.855,0.545,1.040,0.724,0.356,0.613,0.574,�k,1.7,��
2021/10/14,16:50,0.573,0.859,0.545,1.039,0.725,0.355,0.615,0.576,�k�k��,2.0,��
2021/10/14,17:00,0.573,0.858,0.544,1.037,0.726,0.353,0.614,0.577,�k�k��,0.9,��
2021/10/14,17:10,0.573,0.859,0.546,1.038,0.724,0.355,0.613,0.575,���k��,0.8,��
2021/10/14,17:20,0.574,0.857,0.545,1.037,0.727,0.355,0.616,0.577,�k�k��,1.5,��
2021/10/14,17:30,0.575,0.855,0.547,1.040,0.726,0.355,0.614,0.576,-,CALM,��
2021/10/14,17:40,0.574,0.856,0.546,1.039,0.727,0.354,0.615,0.576,���k��,0.6,��
2021/10/14,17:50,0.575,0.858,0.547,1.038,0.728,0.355,0.612,0.577,��,0.6,��
2021/10/14,18:00,0.575,0.859,0.547,1.039,0.729,0.355,0.614,0.578,-,CALM,��
2021/10/14,18:10,0.576,0.859,0.547,1.040,0.729,0.355,0.614,0.575,-,CALM,��
2021/10/14,18:20,0.576,0.858,0.548,1.041,0.728,0.355,0.614,0.578,�쐼,1.5,��
2021/10/14,18:30,0.573,0.858,0.548,1.040,0.728,0.355,0.614,0.576,��쐼,1.2,��
2021/10/14,18:40,0.575,0.859,0.549,1.040,0.729,0.355,0.613,0.577,��쓌,0.6,��
2021/10/14,18:50,0.575,0.857,0.548,1.038,0.729,0.354,0.613,0.576,�쐼,1.4,��
2021/10/14,19:00,0.576,0.857,0.547,1.040,0.729,0.355,0.612,0.578,��쐼,1.4,��
2021/10/14,19:10,0.575,0.857,0.548,1.039,0.729,0.356,0.613,0.576,��쐼,1.4,��
2021/10/14,19:20,0.575,0.859,0.547,1.042,0.729,0.355,0.613,0.577,�쐼,1.7,��
2021/10/14,19:30,0.576,0.859,0.546,1.039,0.728,0.354,0.613,0.576,��쐼,1.7,��
2021/10/14,19:40,0.574,0.858,0.548,1.041,0.728,0.354,0.613,0.576,��쐼,0.9,��
2021/10/14,19:50,0.576,0.859,0.547,1.039,0.728,0.354,0.611,0.573,��쐼,0.8,��
2021/10/14,20:00,0.576,0.859,0.546,1.040,0.729,0.354,0.614,0.576,-,CALM,��
2021/10/14,20:10,0.576,0.856,0.547,1.041,0.727,0.356,0.613,0.577,���k��,0.6,��
2021/10/14,20:20,0.575,0.860,0.548,1.039,0.727,0.355,0.614,0.575,-,CALM,��
2021/10/14,20:30,0.575,0.859,0.546,1.040,0.730,0.354,0.614,0.576,��,0.8,��
2021/10/14,20:40,0.574,0.859,0.547,1.041,0.730,0.354,0.613,0.577,��쐼,1.7,��
2021/10/14,20:50,0.576,0.857,0.549,1.040,0.728,0.355,0.613,0.577,��쐼,2.0,��
2021/10/14,21:00,0.577,0.859,0.547,1.042,0.729,0.355,0.613,0.577,��쐼,2.0,��
2021/10/14,21:10,0.575,0.858,0.547,1.040,0.730,0.355,0.614,0.576,��쐼,2.0,��
2021/10/14,21:20,0.575,0.857,0.546,1.040,0.729,0.354,0.614,0.577,�쐼,1.5,��
2021/10/14,21:30,0.576,0.858,0.547,1.041,0.728,0.355,0.613,0.577,�쐼,1.4,��
2021/10/14,21:40,0.574,0.858,0.547,1.039,0.728,0.355,0.612,0.575,��,0.9,��
2021/10/14,21:50,0.575,0.859,0.546,1.041,0.729,0.356,0.611,0.576,��쐼,1.2,��
2021/10/14,22:00,0.574,0.857,0.547,1.040,0.730,0.354,0.612,0.577,��쐼,1.5,��
2021/10/14,22:10,0.575,0.858,0.546,1.043,0.728,0.356,0.613,0.576,��쐼,1.4,��
2021/10/14,22:20,0.575,0.857,0.547,1.039,0.729,0.356,0.613,0.577,��,1.7,��
2021/10/14,22:30,0.575,0.859,0.547,1.039,0.729,0.355,0.613,0.578,��쐼,1.5,��
2021/10/14,22:40,0.576,0.857,0.546,1.041,0.730,0.355,0.612,0.576,���쐼,1.2,��
2021/10/14,22:50,0.575,0.858,0.547,1.042,0.730,0.356,0.611,0.577,�쐼,1.7,��
2021/10/14,23:00,0.575,0.856,0.547,1.040,0.731,0.354,0.613,0.576,��쐼,2.0,��
2021/10/14,23:10,0.577,0.858,0.547,1.042,0.730,0.356,0.613,0.578,��쐼,2.5,��
2021/10/14,23:20,0.575,0.859,0.546,1.040,0.730,0.355,0.612,0.576,��쐼,2.0,��
2021/10/14,23:30,0.575,0.857,0.548,1.039,0.729,0.354,0.612,0.577,��쐼,2.6,��
2021/10/14,23:40,0.575,0.859,0.545,1.040,0.728,0.355,0.613,0.576,��쐼,2.0,��
2021/10/14,23:50,0.576,0.857,0.547,1.039,0.729,0.356,0.612,0.577,��,2.3,��
